Theta_e
310 308 309 308 308 309 310 310 310 311 311 311 311 310 307 305 304 304 302 300 300 299 298 297 296 296 297 300 302 303 306 307 312 315 315 315 311 311 314 315 317 318 320 321
310 310 309 309 309 309 310 311 311 310 310 311 310 309 306 304 303 302 301 300 299 298 297 296 295 295 295 295 297 299 300 303 305 306 306 307 305 304 304 305 308 311 314 315
311 312 311 310 312 314 313 313 312 313 310 308 309 309 307 305 303 301 300 299 298 298 297 295 295 294 294 294 294 295 296 298 299 301 303 304 303 303 303 301 302 303 307 309
310 310 311 312 313 313 314 312 312 312 310 311 309 315 307 307 304 302 300 298 297 296 296 296 295 294 294 293 294 295 295 295 296 297 297 297 295 294 295 295 297 299 301 302
315 312 311 313 312 310 313 310 310 310 309 310 310 310 308 306 306 303 300 299 297 296 295 294 294 293 293 292 292 292 293 293 293 294 294 294 293 293 292 292 293 294 296 298
311 308 309 310 309 309 308 310 310 308 308 312 310 311 312 308 308 303 301 298 296 295 293 293 294 293 292 292 290 289 289 289 290 290 289 289 289 288 287 286 286 286 287 288
311 310 309 309 310 309 308 311 316 314 313 317 312 311 313 307 305 303 299 296 294 293 292 292 292 292 292 291 290 289 288 287 288 288 287 287 287 286 285 285 285 285 285 285
316 318 309 308 310 313 308 311 312 309 315 315 311 314 311 302 300 298 296 294 293 292 292 292 292 292 291 290 290 289 288 287 287 287 287 286 286 286 286 285 285 285 285 284
316 318 309 309 309 311 312 313 311 311 302 308 313 310 306 300 298 296 295 294 293 292 291 292 292 291 291 290 289 289 288 287 287 287 286 286 286 286 285 285 285 285 285 285
315 318 312 310 309 307 310 308 313 309 306 311 312 313 312 303 299 297 296 294 292 292 291 291 291 290 290 290 289 288 288 287 287 287 287 286 286 286 286 286 286 286 285 285
312 314 313 311 311 311 308 310 309 309 306 309 308 310 308 306 300 298 297 295 293 291 291 291 290 290 290 289 289 288 288 287 287 287 287 287 287 287 286 286 286 286 285 285
312 309 307 312 309 309 310 309 308 308 307 312 311 311 302 304 300 299 298 296 293 290 289 288 289 290 289 289 288 288 288 287 287 287 287 287 287 286 286 286 285 285 285 284
312 308 302 306 306 308 311 310 310 309 307 305 307 307 300 300 299 298 297 295 293 289 287 287 288 288 288 289 288 288 288 288 287 287 287 287 287 286 286 286 285 284 283 283
310 307 307 312 304 307 308 308 308 307 302 310 307 308 302 300 299 298 296 293 291 289 287 286 286 287 288 288 288 288 288 288 288 287 287 286 286 286 285 284 283 283 282 282
308 307 304 305 306 306 305 305 305 305 304 302 302 303 302 300 297 295 294 289 287 287 286 285 286 287 288 289 288 288 288 288 287 286 286 286 285 284 284 283 281 281 281 281
301 299 299 295 301 303 303 302 302 303 303 301 302 301 298 293 291 291 290 288 287 287 287 287 286 287 287 287 287 287 287 286 285 285 284 284 283 282 280 279 279 279 279 279
301 297 293 296 294 293 293 294 297 297 297 297 296 297 292 292 289 288 287 287 287 287 286 286 286 287 287 286 287 286 285 284 284 283 282 280 278 277 277 277 276 275 275 274
299 294 293 289 284 290 294 291 293 294 295 292 291 287 288 290 289 287 286 286 287 287 286 286 287 286 286 286 285 284 283 281 279 277 276 275 276 275 273 272 272 271 271 271
297 297 294 292 283 289 294 291 291 291 290 287 289 286 288 287 286 287 286 285 286 285 287 287 286 285 284 283 282 280 278 276 275 274 274 273 272 270 270 269 269 268 268 267
292 297 299 282 288 289 289 288 288 288 288 283 283 284 289 286 285 286 285 286 286 287 286 285 283 283 281 279 276 275 274 273 272 272 271 269 269 268 267 266 266 265 265 265
284 287 299 293 294 287 288 288 288 288 289 282 284 287 288 287 288 287 285 286 287 287 284 282 280 279 277 275 273 272 271 271 270 269 268 267 266 265 265 264 264 263 263 263
288 288 289 290 293 292 286 287 289 288 287 286 288 288 288 287 287 286 286 285 284 282 281 279 277 275 273 272 271 270 269 269 267 266 266 265 265 264 264 263 263 262 262 262
287 287 287 288 289 289 286 288 288 288 287 288 289 288 287 287 286 286 285 284 282 281 278 276 274 272 271 270 269 268 267 266 266 265 265 264 264 263 263 262 262 262 262 262
287 286 287 286 288 288 289 289 289 288 288 288 287 286 285 286 286 285 283 281 279 277 275 273 271 270 269 268 267 267 266 265 265 264 264 263 263 263 262 262 262 261 261 262
288 287 286 286 288 288 288 289 290 288 287 286 285 286 286 284 284 284 280 278 277 275 273 271 270 269 267 266 266 266 265 265 264 263 263 263 262 262 262 262 262 262 263 263
287 288 288 288 289 289 289 288 287 287 286 286 285 283 283 284 283 280 277 277 275 272 270 269 267 267 266 266 266 266 265 264 263 263 262 262 262 262 262 261 261 262 264 265
Wind_Speed
1 4 7 12 10 4 3 3 6 5 6 3 5 6 8 10 9 10 9 10 11 13 14 20 24 28 32 33 34 33 31 28 20 16 14 16 18 18 15 12 7 3 3 8
4 6 13 3 5 7 5 6 7 6 5 1 5 8 6 12 7 8 9 9 9 9 11 17 21 27 34 35 35 34 32 28 25 22 19 15 16 19 19 15 13 9 5 5
8 7 4 7 5 5 5 6 5 7 3 3 2 5 2 4 7 10 10 8 8 8 9 9 19 24 32 35 34 36 36 34 30 25 19 16 14 18 18 21 18 18 12 9
6 6 6 5 6 6 6 4 7 2 2 3 3 4 4 3 4 6 7 7 7 7 7 12 17 23 28 30 31 33 34 34 34 31 32 31 29 25 23 22 19 17 17 15
7 4 4 6 8 9 8 3 5 3 3 2 3 2 5 6 3 4 5 7 7 6 7 8 15 20 24 28 29 31 31 33 32 31 30 29 28 24 24 24 25 25 21 18
5 1 4 6 2 5 4 3 5 4 3 1 7 6 4 5 6 7 6 5 6 7 6 11 17 21 24 23 27 28 30 30 29 30 30 29 28 26 27 28 29 27 26 25
1 5 1 2 3 2 4 5 3 3 2 5 4 3 3 6 4 16 15 8 7 6 6 6 10 16 19 21 23 24 26 27 25 26 26 26 26 25 25 26 26 28 28 28
4 4 8 4 6 7 6 7 5 6 3 4 4 5 2 4 9 12 10 9 7 7 6 6 11 13 14 16 18 20 21 22 22 22 22 21 22 23 22 22 22 23 25 26
5 5 1 1 1 5 4 4 2 6 2 2 4 2 2 4 6 7 9 7 7 7 6 7 10 11 12 13 15 15 16 17 18 19 19 19 19 19 21 21 22 24 24 26
4 2 1 1 2 3 3 5 3 3 1 5 4 4 4 9 10 8 7 8 8 7 7 6 10 10 11 10 9 9 11 14 13 14 15 16 17 18 19 21 23 24 26 26
4 3 3 2 4 6 1 1 3 3 4 5 2 5 0 13 15 13 11 11 8 8 8 7 10 10 9 7 6 5 4 4 5 6 9 10 12 14 18 23 25 26 28 30
1 4 3 6 1 2 1 5 5 4 5 5 1 8 5 12 15 14 11 9 8 7 7 9 13 11 9 7 5 3 2 2 3 4 6 10 14 16 18 21 25 27 30 32
7 1 2 7 4 1 3 3 3 4 3 6 5 6 3 6 7 7 7 7 7 7 7 7 11 12 12 10 9 8 7 8 9 9 10 13 16 19 22 24 30 31 30 31
4 4 7 11 4 3 4 3 4 4 3 2 6 4 2 5 8 6 5 7 8 8 8 7 8 13 12 11 11 11 12 14 16 15 15 17 19 21 23 29 35 34 35 36
3 6 3 2 3 3 5 6 8 8 6 6 7 9 13 11 8 8 7 7 7 6 7 7 7 12 13 12 12 12 12 15 17 16 16 19 22 27 32 36 37 37 33 32
2 3 3 2 4 5 6 13 9 10 13 11 14 20 11 5 4 3 6 8 7 6 6 6 8 9 9 9 7 6 8 8 8 12 18 23 28 32 33 34 31 30 31 31
5 5 3 5 3 4 8 9 16 11 8 9 11 14 2 5 6 7 7 7 7 6 6 6 8 11 10 6 4 2 4 9 14 19 24 26 28 31 30 30 33 32 33 35
5 4 2 3 2 2 6 3 3 10 11 7 2 4 4 3 2 6 6 7 7 7 6 8 13 8 7 6 2 4 10 15 19 20 22 23 22 27 32 33 33 35 34 35
2 5 3 3 4 7 12 7 8 8 7 6 8 3 2 5 4 2 7 7 8 8 14 12 8 10 8 2 4 9 13 14 17 20 18 19 25 28 28 29 30 32 34 36
2 3 6 3 4 9 6 3 2 5 5 6 6 5 6 7 3 6 8 6 9 11 9 14 12 8 4 3 7 9 11 13 17 15 22 24 26 29 31 30 31 31 31 34
3 0 12 8 6 8 8 5 1 5 6 3 6 6 7 6 7 4 7 6 8 10 14 13 9 7 3 3 7 10 10 12 14 21 22 23 27 30 31 32 30 31 32 33
8 9 5 3 5 10 7 6 7 6 0 5 6 5 7 7 5 6 7 6 9 12 11 7 7 5 1 4 8 9 10 13 18 19 23 27 28 28 29 32 33 30 30 31
2 7 6 10 7 3 7 6 10 6 6 6 6 7 9 8 7 8 7 6 11 13 10 6 3 1 3 6 9 12 14 17 18 21 26 28 27 27 28 28 30 28 28 27
4 4 3 4 5 6 9 9 5 8 8 7 7 9 8 9 9 8 5 6 10 12 9 5 0 2 3 8 11 13 15 17 19 24 27 26 25 27 25 25 26 25 27 26
5 6 4 3 4 1 7 11 11 9 10 8 7 9 11 9 9 7 6 7 11 10 7 3 2 3 7 10 13 13 15 16 21 25 26 25 22 23 25 24 27 27 29 29
6 7 4 7 12 8 11 9 12 12 11 10 10 5 8 10 9 8 5 11 12 10 6 2 3 6 10 12 14 14 13 15 20 26 22 22 23 23 24 24 28 32 30 32
Wind_Direction
206 115 204 207 201 174 195 212 239 259 264 271 264 278 3 6 36 89 82 78 70 60 47 38 38 45 55 60 61 60 64 63 72 78 79 65 66 66 65 64 57 40 312 280
56 224 232 187 173 215 235 241 247 260 244 263 288 306 43 36 46 70 90 76 71 71 49 40 40 45 52 55 59 63 63 64 68 73 73 85 82 65 56 57 55 44 26 347
173 221 174 176 208 204 221 214 231 232 331 286 346 294 62 46 69 77 64 73 65 65 62 45 46 47 53 54 55 60 64 64 65 69 84 89 74 55 42 32 35 39 41 35
227 241 192 178 223 176 267 212 216 194 82 238 48 280 206 166 85 70 80 62 58 55 50 52 50 50 55 60 63 63 62 62 63 66 66 65 63 57 46 41 38 39 40 41
238 204 171 194 224 163 221 151 152 160 171 42 307 122 269 135 166 130 87 83 74 53 55 57 59 60 63 61 62 64 64 63 62 62 63 66 63 55 49 46 42 39 39 31
233 239 180 205 139 175 133 57 36 46 100 274 211 164 246 193 190 146 127 114 103 97 83 72 72 68 65 64 62 61 60 58 57 59 57 56 54 50 46 39 35 33 30 28
227 228 253 162 124 44 101 80 316 338 348 233 148 144 261 316 142 153 144 137 125 119 106 94 80 75 69 63 61 60 58 54 52 52 53 51 48 44 40 34 29 22 19 16
185 282 168 190 195 181 177 160 165 210 214 248 299 244 276 47 98 120 129 136 134 128 123 114 102 90 81 72 66 60 54 50 44 44 43 42 40 36 31 22 18 16 9 3
177 267 120 142 164 136 182 176 189 101 38 44 228 76 94 106 116 130 140 145 155 156 150 131 118 106 97 83 66 57 56 52 41 36 32 27 25 22 17 8 2 359 357 353
220 244 346 171 121 48 153 161 78 11 230 251 278 253 204 189 178 174 172 177 185 167 149 139 133 116 91 86 77 63 50 43 36 25 23 14 6 6 2 356 352 347 344 343
154 148 249 128 195 189 58 214 82 133 144 193 260 254 4 183 177 179 196 200 180 171 166 154 139 133 131 133 137 121 95 65 41 22 18 10 352 350 347 345 342 336 332 333
4 122 181 199 354 338 298 212 166 158 242 241 174 261 333 168 174 183 198 190 179 173 165 154 160 170 174 177 184 198 215 258 298 337 338 339 338 335 329 329 329 328 326 324
178 198 17 343 343 22 203 200 141 113 108 213 174 258 59 137 163 202 189 182 171 164 170 173 178 192 200 210 223 234 248 273 286 286 293 308 315 316 315 317 324 320 316 313
105 172 176 227 191 144 169 179 179 141 139 178 231 292 160 221 203 217 207 179 174 177 181 193 206 218 223 235 254 272 288 300 295 288 291 298 307 313 313 315 318 316 316 314
157 203 132 206 141 173 213 182 194 198 193 193 253 227 243 207 227 245 224 163 169 180 193 205 215 230 241 255 271 275 283 305 297 295 305 313 314 315 315 315 315 315 313 308
356 201 101 307 251 244 269 261 184 218 237 244 253 264 261 147 155 166 189 162 161 179 198 210 212 217 232 243 262 278 303 311 310 310 312 313 313 311 311 313 313 311 309 306
144 133 94 259 13 46 304 236 220 221 200 209 223 243 131 178 172 175 157 153 175 197 213 218 220 238 247 257 261 275 321 312 311 311 309 312 313 312 314 311 311 309 306 304
137 110 80 187 36 243 250 289 224 227 249 199 206 232 198 186 171 147 178 173 187 191 208 224 232 225 193 179 185 306 310 313 314 315 317 318 311 308 308 308 307 306 306 303
163 135 153 178 203 308 289 232 189 173 264 194 195 227 175 115 72 268 208 179 185 208 231 242 204 171 154 199 289 306 314 318 320 319 313 311 312 310 309 305 303 302 301 299
186 292 191 129 177 216 247 283 160 111 289 220 154 190 160 140 155 232 201 195 229 245 240 165 156 163 185 238 306 326 327 319 316 310 310 312 312 309 305 303 301 299 295 294
95 212 214 210 228 279 243 205 193 107 241 177 179 189 166 187 203 184 178 220 239 223 168 155 157 168 184 291 321 333 320 313 305 308 310 309 311 310 310 305 301 299 297 295
162 163 201 186 217 256 169 82 165 207 278 178 198 199 187 213 213 216 226 238 201 173 155 155 148 161 237 315 331 330 314 310 314 312 311 315 316 316 313 309 303 300 298 296
226 190 182 188 203 218 207 182 212 166 163 200 190 207 200 205 225 231 235 227 177 172 169 166 166 187 310 331 335 328 325 325 318 318 319 321 321 318 312 300 299 301 299 295
255 155 211 97 220 215 206 227 200 192 205 203 205 207 195 214 225 232 213 167 161 174 175 176 87 344 325 327 329 330 327 326 323 322 324 322 312 310 304 300 299 296 293 292
197 143 172 264 283 238 253 230 232 214 221 229 223 219 223 206 234 212 184 165 171 181 173 198 295 306 315 322 327 333 333 331 328 327 322 314 309 304 301 301 299 294 291 289
184 203 190 234 228 222 241 224 217 219 221 221 224 226 228 201 207 174 160 175 176 176 181 205 284 310 319 323 326 334 339 335 332 324 316 310 308 303 302 304 302 303 300 300